Location: Unspecified
(0.0000°N, 0.0000°E)
Time: 13:16:09
(UTC+01:00)

SJ-6B - Visible Passes

Search period start: 24 November 2014 00:00
Search period end: 04 December 2014 00:00
Orbit: 518 x 597 km, 97.8° (Epoch: 23 November)

Date Brightness Start Highest point End Pass type
(mag) Time Alt. Az. Time Alt. Az. Time Alt. Az.
24 Nov 5.0 19:28:08 10° SSW 19:31:33 30° WSW 19:34:53 10° NW visible
25 Nov 4.8 19:26:00 10° SSW 19:29:28 32° WSW 19:32:52 10° NW visible
26 Nov 4.7 19:23:52 10° SSW 19:27:23 35° WSW 19:30:51 10° NW visible
27 Nov 4.5 19:21:43 10° S 19:25:18 37° WSW 19:28:48 10° NNW visible
28 Nov 4.3 19:19:34 10° S 19:23:11 41° WSW 19:26:45 10° NNW visible
29 Nov 4.1 19:17:25 10° S 19:21:04 44° WSW 19:24:40 10° NNW visible
30 Nov 3.9 19:15:16 10° S 19:18:57 48° WSW 19:22:34 10° NNW visible
01 Dec 3.7 19:13:06 10° S 19:16:49 53° WSW 19:20:28 10° NNW visible
02 Dec 3.5 19:10:55 10° S 19:14:40 58° WSW 19:18:21 10° NNW visible
